Volver al catálogo

FENGYUN 1C DEB

ActivoSSO
NORAD 30277·DEBRIS·🇨🇳 China

Lanzado May 10, 1999 desde Taiyuan Satellite Launch Center

Loading…

Próximos Pases (próximas 24 horas)

TLE

ActualizadoSource: Space-Track

Época: Sep 14, 2026, 03:38 UTC

1 30277U 99025YN  26257.15162289  .00001441  00000-0  71830-3 0  9992
2 30277  98.9536 333.6742 0122679 117.9786 272.9307 14.14653072  6790

Sigue FENGYUN 1C DEB en tiempo real con AllMySat

Download on the App Store